This is the latest recevied weather packets stored in our database for station/object IU3NMQ-10. If no packets are shown the sender has not sent any weather packets the latest 10 day(s).
| Time | Temp. | Humidity | Pressure | Rain* | Wind** | Luminosity | Snow |
|---|---|---|---|---|---|---|---|
| 1788181408 | 34.44° C | 41% | 1009.6 hPa | - | - | - | - |
| 1788180507 | 35° C | 40% | 1009.8 hPa | - | - | - | - |
| 1788179681 | 35.56° C | 40% | 1009.9 hPa | - | - | - | - |
| 1788179607 | 35.56° C | 40% | 1009.9 hPa | - | - | - | - |
| 1788178707 | 35.56° C | 40% | 1010 hPa | - | - | - | - |
| 1788177807 | 35° C | 40% | 1010 hPa | - | - | - | - |
| 1788176907 | 35.56° C | 41% | 1010.2 hPa | - | - | - | - |
| 1788176109 | 35.56° C | 41% | 1010.4 hPa | - | - | - | - |
| 1788176007 | 35.56° C | 41% | 1010.4 hPa | - | - | - | - |
| 1788175107 | 35° C | 42% | 1010.5 hPa | - | - | - | - |
| 1788174207 | 35° C | 44% | 1010.5 hPa | - | - | - | - |
| 1788173306 | 35° C | 45% | 1010.6 hPa | - | - | - | - |
| 1788172406 | 34.44° C | 46% | 1010.6 hPa | - | - | - | - |
| 1788171506 | 34.44° C | 46% | 1010.8 hPa | - | - | - | - |
| 1788170606 | 33.89° C | 47% | 1011 hPa | - | - | - | - |
| 1788169706 | 33.33° C | 48% | 1011 hPa | - | - | - | - |
| 1788168806 | 32.78° C | 50% | 1011.1 hPa | - | - | - | - |
| 1788167906 | 32.78° C | 50% | 1011.1 hPa | - | - | - | - |
| 1788167006 | 32.22° C | 53% | 1011.2 hPa | - | - | - | - |
| 1788166105 | 31.11° C | 55% | 1011.2 hPa | - | - | - | - |
| 1788165205 | 30.56° C | 58% | 1011.1 hPa | - | - | - | - |
| 1788164305 | 30° C | 58% | 1011 hPa | - | - | - | - |
| 1788163405 | 29.44° C | 60% | 1010.9 hPa | - | - | - | - |
| 1788162505 | 28.89° C | 61% | 1011 hPa | - | - | - | - |
| 1788161605 | 28.33° C | 63% | 1010.8 hPa | - | - | - | - |
* Rain since midnight (hover to see other rain measurements)
** Current wind speed in m/s (hover to see current wind gust speed)